Regional Weather Roundup
Issued by NWS Wakefield, VA

Home | Current Version | Previous Version | Graphics & Text | Print | Product List | Glossary On
Versions: 1 2 3 4 5 6 7 8 9 10 11 12 13 14 15 16 17 18 19 20 21 22 23 24 25 26 27 28 29 30 31 32 33 34 35 36 37 38 39 40 41 42 43 44 45 46 47 48 49 50
000
ASUS41 KAKQ 282310
RWRAKQ

REGIONAL WEATHER ROUNDUP
NATIONAL WEATHER SERVICE WAKEFIELD VA
700 PM EDT MON JUL 28 2014

Note: "fair" indicates few or no clouds below 12,000 feet with no
significant weather and/or obstructions to visibility. * = Denotes
station may not report precipitation (e.g., rain,snow,etc.),
thunder or fog.

VAZ042-051-052>054-056-290000-
NORTHERN VIRGINIA

CITY           SKY/WX    TMP DP  RH WIND       PRES   REMARKS
WASH NATIONAL  MOSUNNY   82  56  40 NW22G29   29.73R
DULLES         PTSUNNY   75  56  51 W13G24    29.74R
FORT BELVOIR   MOSUNNY   80  58  47 W20G26    29.74R
QUANTICO       PTSUNNY   81  56  42 NW21G31   29.75R
FREDERICKSBRG* SUNNY     82  56  40 NW13G22   29.75R
STAFFORD*      SUNNY     79  56  45 W13G18    29.80R
WARRENTON      CLOUDY    79  64  60 W5G17     29.77R
CULPEPER*      MOSUNNY  N/A N/A N/A NW6       29.78R
MANASSAS*      PTSUNNY   77  57  50 NW14      29.75R
LEESBURG*      CLOUDY    75  61  60 NW14G21   29.76S
WINCHESTER     CLOUDY    72  57  60 NW16G23   29.80R
$$

VAZ048-049-060>072-079>083-290000-
CENTRAL AND SOUTH CENTRAL VIRGINIA...AND NORTH CENTRAL NORTH CAROLINA

CITY           SKY/WX    TMP DP  RH WIND       PRES   REMARKS
RICHMOND       MOSUNNY   84  55  36 W16G28    29.75R
CHESTERFIELD*  CLEAR     82  54  36 W12G20    29.77S
HANOVER        PTSUNNY   83  57  41 W14       29.77R
TAPPAHANNOCK*  SUNNY     82  52  34 W8        29.74S
CHARLOTTSVILLE MOSUNNY   76  56  49 NW9       29.80R
ORANGE*        MOSUNNY   77  55  47 W13       29.80R
LOUISA*        SUNNY     81  55  41 NW7       29.77R
FARMVILLE*     MOSUNNY   81  55  41 W5        29.78S
SOUTH HILL*    MOSUNNY   82  61  47 W6        29.84S
ROANOKE RAPIDS NOT AVBL
RALEIGH        MOSUNNY   83  58  42 VRB7      29.81R
$$

VAZ088>098-290000-
SOUTHEAST VIRGINIA

CITY           SKY/WX    TMP DP  RH WIND       PRES   REMARKS
NORFOLK        PTSUNNY   84  58  40 W8        29.74R
VIRGINIA BEACH MOSUNNY   83  58  42 W13       29.73R
NORFOLK NAVAL  PTSUNNY   84  60  44 W10       29.75S
WEST POINT*    SUNNY     85  54  34 W12G17    29.74S
NEWPORT NEWS   SUNNY     87  57  35 W13       29.74R
LANGLEY AFB    SUNNY     83  62  49 W13       29.73R
FORT EUSTIS    SUNNY     83  60  45 W12       29.73R
WILLIAMSBURG*  SUNNY     86  59  39 W13       29.75R
FRANKLIN*      SUNNY     82  61  47 W7        29.76S
WAKEFIELD      MOSUNNY   84  60  44 VRB6      29.76R
$$

VAZ020-022-025-037-045-290000-
WESTERN AND SOUTHWEST VIRGINIA

CITY           SKY/WX    TMP DP  RH WIND       PRES   REMARKS
STAUNTON*      CLOUDY    73  53  50 NW13G18   29.86R
HOT SPRINGS VA CLOUDY    58  50  76 W15       29.96F
LYNCHBURG      MOSUNNY   76  57  51 VRB7      29.85R
DANVILLE       SUNNY     82  58  43 NW9       29.82S
MARTINSVILLE   PTSUNNY   78  57  47 NW9       29.88S
ROANOKE        PTSUNNY   75  55  49 NW17      29.89R
BLACKSBURG     CLOUDY    70  59  68 NW8       29.95S
DUBLIN*        CLOUDY    71  56  60 NW10G16   29.95R
MARION*        MOSUNNY  N/A N/A N/A W14G23    29.99S
HILLSVILLE*    CLOUDY    71  55  57 NW16G22   29.95F
RICHLANDS*     CLOUDY    69  57  63 NW10G17   30.00S
WISE*          CLOUDY    66  54  63 NW8       30.02S
ABINGDON*      PTSUNNY   73  58  59 NW8       29.97F
$$

MDZ021>025-VAZ099-100-290000-
SOUTHERN MARYLAND AND THE DELMARVA PENINSULA

CITY           SKY/WX    TMP DP  RH WIND       PRES   REMARKS
PATUXENT RIVER PTSUNNY   81  57  43 W13       29.71R
BAY BRIDGE APT   N/A     81  55  41 W15G24    29.69R
LEONARDTOWN    PTSUNNY   81  55  41 W12       29.73S
DOVER          CLOUDY    80  60  50 W17G26    29.66R
GEORGETOWN     CLOUDY    82  57  42 VRB7      29.69R
EASTON         PTSUNNY   82  59  44 NW9G20    29.73R
CAMBRIDGE      MOSUNNY   79  55  44 W6        29.70R
SALISBURY      NOT AVBL
OCEAN CITY     MOSUNNY   81  59  47 W8        29.69R
WALLOPS ISLAND PTSUNNY   82  62  50 W6        29.71R
ACCOMACK*        N/A     81  61  50 W7        29.71S
$$

NCZ012>017-030>032-290000-
EASTERN NORTH CAROLINA

CITY           SKY/WX    TMP DP  RH WIND       PRES   REMARKS
ELIZABETH CITY SUNNY     83  64  52 W9        29.76R
AHOSKIE*       SUNNY     82  62  51 CALM      29.78R
EDENTON*       SUNNY     85  62  46 NW6       29.77R
CURRITUCK*     SUNNY     86  60  41 W8        29.76S
KILL DEVIL HLS SUNNY     85  67  56 W9        29.75R
MANTEO         NOT AVBL
CAPE HATTERAS  PTSUNNY   82  80  94 SW7       29.78R FOG
GOLDSBORO      SUNNY     87  67  51 NW8       29.77R
WASHINGTON     MOSUNNY   84  66  54 N7        29.78R
GREENVILLE     SUNNY     84  66  54 N5        29.82R
NEW BERN       PTSUNNY   78  72  81 S6        29.80R
WILMINGTON     CLOUDY    73  68  84 W5        29.76F
$$

VAZ048-290000-
ELSEWHERE

CITY           SKY/WX    TMP DP  RH WIND       PRES   REMARKS
HARRISBURG PA  RAIN      67  63  87 W8        29.71R FOG
BALTIMORE      PTSUNNY   79  58  48 W10G25    29.69R
ANNAPOLIS      SUNNY     80  57  45 W14G24    29.70R
ANDREWS AFB    MOSUNNY   80  57  45 NW20G31   29.72R
WILMINGTON DE  SUNNY     80  58  46 W16G26    29.66R
PHILADELPHIA   MOSUNNY   82  57  42 W17G30    29.64R
WILDWOOD NJ*   PTSUNNY   79  63  57 W8        29.68R
ATLANTIC CITY  MOSUNNY   81  57  43 W10       29.64R
HENDERSON NC   SUNNY     81  57  43 NW6       29.81R
GREENSBORO     MOSUNNY   83  55  38 NW10G22   29.84S
ROCKY MOUNT    MOSUNNY   85  62  46 NW6       29.78S
FAYETTEVILLE   SUNNY     91  62  37 NW12      29.78R
CHARLOTTE      MOSUNNY   82  56  40 N9        29.85S
$$

VAZ100-290000-
MARINE

STATION/POSITION TIME  TEMP    WIND        PRES    WAVE   SWELL
                       AIR SEA DIR/SP/G            HT/PER HT/PER
                 (UTC) (F)     (DEG/KT/KT) (MB)    (FT/S) (FT/S)
44066 TX TWR #4  2300   77 75  240/ 16/ 19 1002.6R   5/ 6   2/12
CAPE MAY NJ      2300   78 80  250/ 13/ 15 1004.2R
LEWES DE         2300   81 73  280/ 12/ 17 1004.7R
15NM E FENWICK I 2300   77 74              1005.2R   4/ 7
OCEAN-CITY-INLET 2300   82 77  300/  7/  9 1004.9R
WACHAPREAGUE VA  2300   82 83  260/  4/  7 1006.1S
THOMAS POINT MD  2300   80 79  280/ 18/ 21 1006.1R
GOOSES REEF MD   2300   81     300/ 14/ 16 1006.3R
COVE POINT MD    2300   80     320/  6/ 11 1005.8S
SOLOMONS ISLAND  2300      81                N/A
BISHOPS HEAD MD  2300   82 81  290/ 15/ 18 1005.5R
PINEY POINT MD   2300          300/ 17/ 20   N/A
POTOMAC MD       2300   83     290/ 19/ 23 1005.1R
CAMBRIDGE MD     2300   81 80  270/  9/ 11 1005.4R
LEWISETTA VA     2300   82 81  300/ 11/ 15 1006.1R
RAPPAHANNOCK LGT 2300          250/ 13/ 14 1006.7S
STINGRAY PT      2300   84     280/ 14/ 17 1007.0S
YORK RVR RNG VA  2300   83     280/ 16/ 18 1005.9R
YORKTOWN VA      2300   83 81  280/ 12/ 15 1006.4R
JAMESTOWN VA     2300   83     310/ 16/ 19   N/A
DOMINION TERM VA 2300   83     290/ 14/ 16 1007.0R
KIPTOPEKE VA     2300      83  290/ 16/ 18   N/A
CHES BAY BRIDGE  2300   82 79  250/ 15/ 18 1006.3R
CAPE HENRY VA    2300   84     260/ 13/ 18 1005.8R
WILLOUBY STN VA  2300          280/ 17/ 22 1006.2R
S CRANEY ISL VA  2300          270/  5/  8 1007.1R
CAPE HENRY BUOY  2200      78                N/A     3/ 9
1ST LANDING BUOY 2300   83     280/ 16/ 17 1006.6S
CAPE CHARLES BUO 2300      75                N/A     3/ 4
OFFSHORE WE BUOY 2300      79                N/A     4/ 6
64NM E OF VA BCH 2300   81 79  260/ 10/ 12 1006.5R   4/ 7   3/ 7
DUCK PIER NC     2300   85 59  270/ 13/ 17 1006.9R
44056 DUCK FRF   2200                        N/A     1/ 9
OREGON INLET NC  2300   85 83  300/  8/ 11 1007.8R
HATTERAS NC      2300   81 82  230/  6/ 12 1008.6R
DIAMOND SHLS NC  2300          VRB 12/ 14  1008.3R   4/ 7   3/ 7
CAPE LOOKOUT NC  2200   83     230/ 10/ 13 1008.6R
$$



USA.gov is the U.S. government's official web portal to all federal, state and local government web resources and services.